Simultaneous Nadir Overpasses (SNOs) Predictions

Prediction of SNOs between GOES-14 and AQUA Satellite Orbit:

Table of predicted SNOs for the next 14.0 days since TLE Epoch: 3/26/2022
Index Date Time (GOES-14) GOES-14 Lat,Lon AQUA Lat,Lon Distance(km) Time Diff (sec)
1 03/26/2022 08:43:45 0.11,-104.52 0.64,-106.88 268.33 80
2 03/28/2022 08:34:06 0.12,-104.52 -0.01,-103.89 72.23 80
3 03/30/2022 08:21:47 0.12,-104.53 -0.67,-100.89 413.54 80
4 03/30/2022 20:43:09 -0.12,-104.47 -0.45,-106.07 181.54 80
5 04/01/2022 20:28:09 -0.12,-104.48 0.17,-103.07 159.61 80
6 04/02/2022 08:49:21 0.11,-104.52 0.93,-108.21 421.33 80
7 04/04/2022 08:37:02 0.11,-104.52 0.24,-105.23 79.35 80
8 04/06/2022 08:27:21 0.12,-104.53 -0.35,-102.22 262.53 80
9 04/06/2022 20:48:43 -0.11,-104.51 -0.75,-107.40 328.49 80
10 04/08/2022 20:33:43 -0.12,-104.51 -0.08,-104.40 12.88 80
